TimeEST,TemperatureF,Dew PointF,Humidity,Sea Level PressureIn,VisibilityMPH,Wind Direction,Wind SpeedMPH,Gust SpeedMPH,PrecipitationIn,Events,Conditions,WindDirDegrees,DateUTC
12:06 AM,51.8,46.4,82,30.22,10.0,Calm,Calm,-,N/A,,Overcast,0,2011-11-08 05:06:00
12:53 AM,52.0,46.0,80,30.22,7.0,Calm,Calm,-,0.01,Rain,Light Rain,0,2011-11-08 05:53:00
1:18 AM,51.8,42.8,71,30.20,8.0,ENE,4.6,-,0.00,Rain,Light Rain,70,2011-11-08 06:18:00
1:34 AM,51.8,44.6,76,30.21,10.0,Calm,Calm,-,0.00,,Overcast,0,2011-11-08 06:34:00
1:53 AM,50.0,44.1,80,30.21,10.0,SSE,5.8,-,0.00,,Overcast,150,2011-11-08 06:53:00
2:53 AM,51.1,41.0,68,30.20,10.0,Calm,Calm,-,N/A,,Overcast,0,2011-11-08 07:53:00
3:53 AM,50.0,41.0,71,30.19,10.0,ESE,5.8,-,N/A,,Overcast,120,2011-11-08 08:53:00
4:53 AM,50.0,42.1,74,30.19,6.0,ESE,8.1,-,0.01,Rain,Light Rain,110,2011-11-08 09:53:00
5:53 AM,48.9,44.1,83,30.19,10.0,ESE,9.2,-,0.00,,Overcast,110,2011-11-08 10:53:00
6:50 AM,46.4,44.6,93,30.19,2.5,NE,9.2,-,0.00,,Overcast,50,2011-11-08 11:50:00
6:53 AM,46.9,45.0,93,30.20,2.5,NE,9.2,-,0.00,,Overcast,50,2011-11-08 11:53:00
7:08 AM,46.4,44.6,93,30.18,1.5,ENE,10.4,-,N/A,,Overcast,60,2011-11-08 12:08:00
7:23 AM,46.4,44.6,93,30.18,1.5,ENE,9.2,-,0.01,,Overcast,60,2011-11-08 12:23:00
7:43 AM,46.4,44.6,93,30.18,1.5,ENE,10.4,-,0.01,,Overcast,60,2011-11-08 12:43:00
7:53 AM,46.9,45.0,93,30.19,1.0,NE,11.5,-,0.01,,Overcast,50,2011-11-08 12:53:00
8:53 AM,46.9,45.0,93,30.18,1.5,ENE,8.1,-,0.01,,Overcast,70,2011-11-08 13:53:00
9:53 AM,48.0,46.0,93,30.15,1.5,East,9.2,-,N/A,,Overcast,90,2011-11-08 14:53:00
10:53 AM,50.0,48.0,93,30.14,1.5,ESE,6.9,-,0.01,,Overcast,110,2011-11-08 15:53:00
11:50 AM,51.8,48.2,88,30.10,1.0,East,5.8,-,N/A,,Overcast,90,2011-11-08 16:50:00
11:53 AM,51.1,50.0,96,30.11,1.0,East,5.8,-,N/A,,Overcast,90,2011-11-08 16:53:00
12:42 PM,53.6,51.8,94,30.08,1.0,ENE,4.6,-,N/A,,Overcast,70,2011-11-08 17:42:00
12:53 PM,54.0,52.0,93,30.08,1.0,NE,4.6,-,N/A,,Overcast,50,2011-11-08 17:53:00
1:00 PM,55.4,51.8,88,30.07,2.0,ENE,3.5,-,N/A,,Overcast,60,2011-11-08 18:00:00
1:19 PM,55.4,53.6,94,30.05,2.0,ENE,5.8,-,N/A,,Mostly Cloudy,70,2011-11-08 18:19:00
1:53 PM,59.0,54.0,83,30.04,3.0,NE,6.9,-,N/A,,Haze,40,2011-11-08 18:53:00
2:53 PM,62.1,54.0,75,30.01,10.0,SE,6.9,-,N/A,,Clear,140,2011-11-08 19:53:00
3:53 PM,62.1,54.0,75,29.99,10.0,SE,8.1,-,N/A,,Overcast,130,2011-11-08 20:53:00
4:53 PM,62.1,52.0,70,29.98,10.0,SSE,9.2,-,N/A,,Overcast,150,2011-11-08 21:53:00
5:53 PM,59.0,54.0,83,30.00,8.0,WNW,8.1,-,0.00,Rain,Light Rain,300,2011-11-08 22:53:00
6:53 PM,55.9,54.0,93,30.02,4.0,Calm,Calm,-,0.00,,Overcast,0,2011-11-08 23:53:00
7:53 PM,55.9,54.0,93,30.01,7.0,SSE,3.5,-,N/A,,Overcast,160,2011-11-09 00:53:00
8:53 PM,61.0,52.0,72,29.99,10.0,South,6.9,-,N/A,,Overcast,180,2011-11-09 01:53:00
9:53 PM,62.1,51.1,67,29.98,10.0,SSW,3.5,-,N/A,,Overcast,210,2011-11-09 02:53:00
10:53 PM,62.1,50.0,65,29.96,10.0,South,5.8,-,N/A,,Overcast,190,2011-11-09 03:53:00
11:53 PM,55.4,51.8,88,29.97,6.0,WNW,6.9,-,N/A,,Overcast,300,2011-11-09 04:53:00